Showing default

OV1-14, 3174

Orbit data source: Space-Track

OV1-14, 3174 is a payload satellite owned by USAF OAR (US) that was launched on Sat, 06 Apr 1968 UTC via an ATLAS F launch vehicle from the Air Force Western Test Range (AFWTR). Payload-class satellites include a variety of spacecraft equipped with specific instruments for various scientific and technological missions. These include communications satellites like Starlink; space stations such as the ISS; scientific satellites like the Hubble; Earth observation satellites from companies like Planet Labs, Umbra, and HawkEye 360; GPS; miniature CubeSats for education and research; and military/defense satellites.

Loading next visibility...
Identifier
3174, 1968-026B
Orbit
Active
Country
Flag of USUS
Related business
Manufacturer
GD/Convair
Mission
Spacecraft
Bus & Motor
OV1, Unknown motor
Mass
101 kg wet, 101 kg dry
Launch date (UTC)
1968-04-06 (58 years ago)
Launch vehicle
ATLAS F
Launch site
Air Force Western Test Range (AFWTR)
Object type
Payload
Rocket body
Debris
Shape & HBR
Unknown
Radar Cross Section
Medium (>0.1 m² and <1 m²)

Expand to show TLE details & history
Last TLE update: 15 hours ago

TLE from 15 hours ago
0 OV1-14
1  3174U 68026B   25289.06171149  .00000014  00000-0  21420-4 0  9990
2  3174 100.0022 285.4652 4007159 122.4810 346.0346  6.96692335459315
Epoch: 2025-10-16T01:28Z
TLE epoch observation values (Epoch: 2025-10-16T01:28:51.872Z)
Latitude
79.86859°
Longitude
159.44126°
Altitude
939.178 km
Speed
8.649 km/s
True Right ascension
13h 45m 56s
True Declination
79° 48' 37"
Sunlit
Object was in daylight at epoch
Visualization orbit readout
Latitude
Unknown
Longitude
Unknown
Altitude
Unknown
Speed
Unknown
Apparent Right ascension
Unknown
Apparent Declination
Unknown
Sunlit
N/A
Visualization observer readout
Local Sidereal Time
11:29:04
Azimuth
Unknown
Elevation
Unknown
Doppler factor
Unknown
Orbital elements
Apogee altitude
9,838.986 km
Perigee altitude
560.218 km
Semi-major axis
11,577.739 km
Eccentricity
0.40072
Inclination
100.0022°
RAAN
285.4652°
Arg. of periapsis
122.481°
True anomaly
325.59058°
Mean anomaly
346.0346°
Eccentric anomaly
337.10091°
Mean motion
1.74224 °/min
Orbital period
206.63 mins
BSTAR
0.00002142
Loading maneuver chart data...
Computing Atmospheric mass density...
Loading historical data...
Loading historical data...
Loading historical data...
Loading historical data...
Loading historical data...
Loading historical data...
Loading historical data...
Other satellites on launch #26 in the year 1968 (1968-04-06 UTC)

Documentation

Showing up to 5 results
|